Flag for Netherlands Weather past 2 weeks in Leiden, Netherlands

Now
59 °F

Partly cloudy.


Feels Like: 56 °F
Forecast: 57 / 61 °F
Wind: 14 mph from Southwest

Location: Rotterdam Zestienhoven Airport

Current Time: Aug 21, 2014 at 11:02:53 PM

Latest Report: Aug 21, 2014 at 10:25 PM


Visibility: N/A

Pressure: 29.92 "Hg

Humidity: 72%

Dew point: 50 °F

Location of LeidenLocation

Historic Weather in Leiden — Graph

°F

Leiden temperature yesterday

Maximum temperature yesterday: 63 °F (at 12:55 PM)
Minimum temperature yesterday: 48 °F (at 12:25 AM)
Average temperature yesterday: 55 °F

Past Weeks' High & Low Weather Summary

 TemperatureHumidityPressure
High73 °F (Aug 7, 11:55 AM)100% (Aug 8, 6:25 AM)30.09 "Hg (Aug 8, 6:25 AM)
Low46 °F (Aug 21, 5:55 AM)44% (Aug 9, 3:25 PM)29.45 "Hg (Aug 10, 6:25 PM)
Average62 °F77%29.82 "Hg
* Reported Aug 6 9:25 PM — Aug 21 9:55 PM, Leiden, Weather by CustomWeather, © 2014

Note: Actual official high and low records may vary slightly from our data, if they occured in-between our weather recording intervals... More about our weather records

Advertising

Leiden weather history for previous 24 hours

 ConditionsComfort  
Time TempWeatherWind HumidityBarometerVisibility
9:55 PM
Aug 21
59 °FPassing clouds.12 mph72%29.92 "HgN/A
9:25 PM57 °FCool.10 mph72%29.92 "HgN/A
8:55 PM57 °FCool.13 mph67%29.92 "HgN/A
8:25 PM59 °FCool.9 mph63%29.92 "HgN/A
7:55 PM61 °FBroken clouds.13 mph63%29.92 "HgN/A
7:25 PM61 °FScattered clouds.8 mph68%29.92 "HgN/A
6:55 PM61 °FScattered clouds.10 mph68%29.95 "HgN/A
6:25 PM61 °FScattered clouds.10 mph68%29.95 "HgN/A
5:55 PM63 °FClear.9 mph64%29.95 "HgN/A
5:25 PM63 °FPassing clouds.13 mph59%29.95 "HgN/A
4:55 PM63 °FScattered clouds.13 mph56%29.95 "HgN/A
4:25 PM63 °FPassing clouds.13 mph59%29.95 "HgN/A
3:55 PM64 °FBroken clouds.14 mph60%29.95 "HgN/A
3:25 PM63 °FClear.12 mph64%29.98 "HgN/A
2:55 PM63 °FPassing clouds.12 mph68%29.98 "HgN/A
2:25 PM61 °FPartly sunny.8 mph72%29.98 "HgN/A
1:55 PM59 °FLight rain. Broken clouds.6 mph82%29.98 "HgN/A
1:25 PM57 °FRain showers. Broken clouds.10 mph88%29.98 "Hg5 mi
12:55 PM61 °FPassing clouds.15 mph68%29.98 "HgN/A
12:25 PM63 °FPartly sunny.14 mph68%29.98 "HgN/A
11:55 AM61 °FScattered clouds.14 mph68%29.98 "HgN/A
11:25 AM61 °FPassing clouds.13 mph72%29.98 "HgN/A
10:55 AM59 °FClear.10 mph72%29.98 "HgN/A
10:25 AM57 °FPassing clouds.9 mph77%29.98 "HgN/A
9:55 AM57 °FPassing clouds.7 mph72%29.98 "HgN/A
9:25 AM57 °FPassing clouds.5 mph72%29.98 "HgN/A
8:55 AM55 °FClear.5 mph82%29.98 "HgN/A
8:25 AM54 °FClear.5 mph88%29.98 "HgN/A
7:55 AM54 °FClear.3 mph88%29.98 "HgN/A
7:25 AM54 °FClear.6 mph88%29.98 "HgN/A
6:55 AM46 °FClear.2 mph100%29.98 "HgN/A
6:25 AM46 °FFog.1 mph100%29.98 "Hg2 mi
5:55 AM46 °FFog.No wind100%29.98 "Hg3 mi
5:25 AM48 °FCool.1 mph94%30.01 "HgN/A
4:55 AM48 °FClear.2 mph94%30.01 "HgN/A
4:25 AM48 °FCool.2 mph94%30.01 "HgN/A
3:55 AM50 °FCool.2 mph94%30.01 "HgN/A
3:25 AM52 °FClear.7 mph88%30.01 "HgN/A
2:55 AM52 °FClear.8 mph88%30.01 "HgN/A
2:25 AM52 °FClear.5 mph88%30.01 "HgN/A
1:55 AM52 °FClear.5 mph88%30.01 "HgN/A
1:25 AM54 °FPassing clouds.7 mph88%30.01 "HgN/A
12:55 AM54 °FPassing clouds.8 mph82%30.01 "HgN/A
12:25 AM50 °FPassing clouds.2 mph94%30.01 "HgN/A
11:55 PM
Aug 20
52 °FClear.1 mph82%30.01 "HgN/A
11:25 PM54 °FClear.5 mph82%30.01 "HgN/A
Weather by CustomWeather, © 2014

See weather overviewHow to use our weather pages